Waarnemingen

Advertentie
Mijn weer
Karesuando A, Zweden (2081): temperatuur & dauwpunt: 09.08.2018 04:00:00 - 15.08.2018 04:00:00 (CEST)Karesuando A, Zweden (2081): windsnelheid & windstoten: 09.08.2018 04:00:00 - 15.08.2018 04:00:00 (CEST)Karesuando A, Zweden (2081): windrichting: 09.08.2018 04:00:00 - 15.08.2018 04:00:00 (CEST)Karesuando A, Zweden (2081): luchtdruk: 09.08.2018 04:00:00 - 15.08.2018 04:00:00 (CEST)Karesuando A, Zweden (2081): zicht: 09.08.2018 04:00:00 - 15.08.2018 04:00:00 (CEST)
Datum & Tijd tt [°C] td [°C] ff [km/u] ff [kn] fx [km/u] fx [kn] dd ppp [hPa] vv [km]
15.08.2018 04:00:00 4,2 4,2 3 1 6 4 NW 1013,0 32
15.08.2018 03:00:00 4,1 4,0 4 2 6 4 Z 1012,9 47
15.08.2018 02:00:00 3,7 3,6 3 2 8 5 ZW 1012,9 44
15.08.2018 01:00:00 4,3 4,2 6 3 8 5 ZZW 1012,5 50
15.08.2018 00:00:00 5,0 4,6 6 3 10 5 ZZW 1012,3 50
14.08.2018 23:00:00 7,0 6,2 4 2 6 4 WZW 1011,9 50
14.08.2018 22:00:00 8,0 6,8 4 2 6 3 ZW 1011,6 50
14.08.2018 21:00:00 8,8 6,8 5 3 8 5 ZW 1011,0 50
14.08.2018 20:00:00 9,8 6,9 7 4 11 6 WNW 1010,7 50
14.08.2018 19:00:00 11,1 5,8 3 2 7 4 W 1010,2 50
14.08.2018 18:00:00 11,3 6,6 4 2 22 12 N 1010,0 49
14.08.2018 17:00:00 12,2 5,8 7 4 15 8 W 1009,7 50
14.08.2018 16:00:00 13,0 5,7 8 4 19 11 N 1009,6 47
14.08.2018 15:00:00 12,0 4,2 10 5 18 10 NW 1009,9 50
14.08.2018 14:00:00 11,5 5,8 5 3 12 7 NW 1009,9 49
14.08.2018 13:00:00 10,1 4,8 5 3 8 5 NW 1009,9 50
14.08.2018 12:00:00 9,6 6,5 6 4 9 5 W 1009,8 50
14.08.2018 11:00:00 9,0 5,9 4 2 7 4 W 1009,7 50
14.08.2018 10:00:00 8,5 6,1 3 2 6 3 WNW 1009,4 50
14.08.2018 09:00:00 8,0 6,4 2 1 5 3 W 1009,4 50
14.08.2018 08:00:00 7,6 6,7 1 0 6 3 WZW 1009,0 50
14.08.2018 07:00:00 7,3 7,0 3 2 5 3 W 1008,7 50
14.08.2018 06:00:00 6,9 6,6 2 1 7 4 ZW 1008,5 50
14.08.2018 05:00:00 6,5 5,9 5 3 10 5 NW 1008,3 33
14.08.2018 04:00:00 6,2 6,1 6 3 8 4 WNW 1008,2 50
14.08.2018 03:00:00 6,2 5,9 3 2 10 5 NW 1008,0 50
14.08.2018 02:00:00 6,1 6,1 3 1 7 4 WNW 1007,6 47
14.08.2018 01:00:00 5,9 5,6 5 3 9 5 NNW 1007,3 38
14.08.2018 00:00:00 6,5 6,2 5 3 11 6 NW 1006,8 43
13.08.2018 23:00:00 6,9 6,4 6 4 11 6 NW 1006,6 46
13.08.2018 22:00:00 6,8 6,4 6 3 13 7 NW 1006,4 27
13.08.2018 21:00:00 7,1 6,4 7 4 19 11 NNW 1006,1 31
13.08.2018 20:00:00 7,5 6,3 11 6 25 13 NNW 1005,5 32
13.08.2018 19:00:00 8,1 6,1 14 8 26 14 NNW 1005,2 49
13.08.2018 18:00:00 8,7 7,0 13 7 26 14 NNW 1004,9 42
13.08.2018 17:00:00 9,0 7,8 14 8 24 13 NNW 1004,6 50
13.08.2018 16:00:00 8,7 7,7 11 6 31 17 N 1004,3 14
13.08.2018 15:00:00 10,0 6,5 14 8 29 16 N 1003,6 38
13.08.2018 14:00:00 10,0 6,0 15 8 30 16 N 1003,3 31
13.08.2018 13:00:00 10,2 7,6 13 7 33 18 N 1002,9 38
13.08.2018 12:00:00 9,9 7,8 14 7 35 19 N 1002,5 17
13.08.2018 11:00:00 9,2 7,6 19 11 37 20 NNW 1002,4 41
13.08.2018 10:00:00 8,1 7,5 19 10 33 18 NNW 1002,3 3,9
13.08.2018 09:00:00 7,8 7,5 17 9 37 20 NNW 1001,9 3,8
13.08.2018 08:00:00 7,6 7,3 17 9 33 18 NNW 1001,6 4,3
13.08.2018 07:00:00 7,4 7,1 17 9 31 17 NNW 1001,3 4,6
13.08.2018 06:00:00 7,3 7,0 19 10 30 16 NNW 1000,9 10
13.08.2018 05:00:00 7,6 7,0 16 9 29 16 NNW 1000,8 46
13.08.2018 04:00:00 7,9 6,7 15 8 26 14 NNW 1000,6 50
13.08.2018 03:00:00 8,0 6,8 14 8 27 14 NNW 1000,5 50
13.08.2018 02:00:00 8,1 7,0 15 8 24 13 NNW 1000,3 50
13.08.2018 01:00:00 7,8 7,0 11 6 27 15 NNW 1000,3 50
13.08.2018 00:00:00 8,0 7,4 15 8 25 14 NNW 999,9 50
12.08.2018 23:00:00 8,2 7,8 10 5 27 14 N 1000,1 13
12.08.2018 22:00:00 9,2 7,3 14 8 38 20 N 999,9 50
12.08.2018 21:00:00 9,8 7,5 15 8 31 17 N 999,5 50
12.08.2018 20:00:00 10,5 8,2 17 9 31 17 N 999,2 50
12.08.2018 19:00:00 11,1 8,8 15 8 31 17 N 998,7 50
12.08.2018 18:00:00 11,5 9,6 15 8 32 18 N 998,6 50
12.08.2018 17:00:00 12,2 10,8 15 8 37 20 N 998,2 45
12.08.2018 16:00:00 12,7 11,8 14 7 26 14 N 997,8 13
12.08.2018 15:00:00 13,0 11,5 9 5 18 10 N 997,7 40
12.08.2018 14:00:00 13,0 12,2 6 3 16 9 N 997,6 50
12.08.2018 13:00:00 12,4 11,6 10 5 28 15 N 997,5 14
12.08.2018 12:00:00 14,0 12,4 7 4 14 7 WNW 996,9 50
12.08.2018 11:00:00 13,1 12,1 6 4 11 6 NW 996,8 27
12.08.2018 10:00:00 13,1 11,7 5 3 10 5 W 996,7 50
12.08.2018 09:00:00 12,7 11,4 5 3 11 6 W 996,6 10
12.08.2018 08:00:00 12,9 11,2 4 2 9 5 W 996,4 44
12.08.2018 07:00:00 12,7 11,0 4 2 11 6 NW 996,1 50
12.08.2018 06:00:00 11,8 10,9 7 4 11 6 NW 996,0 50
12.08.2018 05:00:00 10,9 10,6 4 2 6 3 WZW 996,1 50
12.08.2018 04:00:00 11,3 10,5 2 1 13 7 NW 995,9 50
12.08.2018 03:00:00 11,5 10,4 6 4 20 11 NW 995,9 50
12.08.2018 02:00:00 11,3 10,3 11 6 22 12 ZW 995,8 50
12.08.2018 01:00:00 11,4 10,2 11 6 22 12 WZW 995,5 50
12.08.2018 00:00:00 12,3 10,4 16 9 29 16 WZW 995,2 50
11.08.2018 23:00:00 12,0 11,3 6 3 12 7 ZW 995,3 50
11.08.2018 22:00:00 12,1 11,2 5 3 14 7 ZZW 995,3 50
11.08.2018 21:00:00 12,3 11,2 5 3 13 7 Z 995,5 50
11.08.2018 20:00:00 12,6 11,0 7 4 13 7 Z 995,7 50
11.08.2018 19:00:00 12,2 11,2 7 4 22 12 ZZO 995,8 50
11.08.2018 18:00:00 12,5 11,1 10 5 23 13 Z 996,0 11
11.08.2018 17:00:00 12,6 10,3 11 6 28 15 Z 996,1 50
11.08.2018 16:00:00 13,3 9,9 12 6 27 15 Z 996,0 50
11.08.2018 15:00:00 13,4 11,8 11 6 34 18 ZZO 996,3 50
11.08.2018 14:00:00 13,3 10,9 13 7 39 21 ZZO 996,5 11
11.08.2018 13:00:00 15,5 10,3 15 8 40 22 ZZO 996,1 44
11.08.2018 12:00:00 16,6 10,9 15 8 36 19 ZZO 996,2 48
11.08.2018 11:00:00 17,5 11,7 21 11 41 22 ZZO 996,2 37
11.08.2018 10:00:00 17,2 14,5 16 8 27 15 ZO 996,7 32
11.08.2018 09:00:00 13,8 13,8 9 5 26 14 O 997,8 1,5
11.08.2018 08:00:00 13,0 13,0 14 8 26 14 O 998,7 2,4
11.08.2018 07:00:00 12,4 12,4 11 6 28 15 O 999,5 2,6
11.08.2018 06:00:00 12,2 12,2 13 7 34 18 O 1000,6 2,9
11.08.2018 05:00:00 12,0 11,9 16 8 34 19 O 1001,4 3,2
11.08.2018 04:00:00 12,0 11,7 19 10 40 22 O 1002,5 7
11.08.2018 03:00:00 12,0 11,5 20 11 36 20 O 1003,2 7
11.08.2018 02:00:00 11,6 10,9 12 6 23 12 ONO 1004,8 36
11.08.2018 01:00:00 11,8 11,2 8 4 20 11 O 1007,1 26
11.08.2018 00:00:00 12,1 11,2 5 3 16 9 O 1007,9 12
10.08.2018 23:00:00 13,0 10,7 7 4 19 10 OZO 1008,6 38
10.08.2018 22:00:00 13,4 9,8 3 1 5 3 NO 1008,9 43
10.08.2018 21:00:00 14,7 9,7 3 2 10 5 O 1009,5 50
10.08.2018 20:00:00 15,3 9,5 5 3 10 5 O 1010,3 50
10.08.2018 19:00:00 16,1 9,1 4 2 9 5 OZO 1011,3 50
10.08.2018 18:00:00 16,8 7,8 5 3 8 5 ONO 1011,7 50
10.08.2018 17:00:00 17,6 6,2 3 1 10 5 O 1012,2 50
10.08.2018 16:00:00 18,1 6,9 3 2 11 6 Z 1012,6 47
10.08.2018 15:00:00 18,0 5,3 3 1 12 7 ZZW 1013,0 47
10.08.2018 14:00:00 18,3 6,2 3 1 12 6 OZO 1013,2 37
10.08.2018 13:00:00 18,2 6,5 8 4 17 9 WZW 1013,7 44
10.08.2018 12:00:00 16,9 6,4 12 6 22 12 WNW 1013,8 45
10.08.2018 11:00:00 17,3 6,5 10 5 26 14 WNW 1013,8 50
10.08.2018 10:00:00 16,4 6,9 13 7 25 13 WNW 1013,8 44
10.08.2018 09:00:00 15,8 8,0 13 7 28 15 W 1013,6 43
10.08.2018 08:00:00 14,5 7,6 9 5 21 11 W 1013,9 46
10.08.2018 07:00:00 12,8 7,3 12 6 21 11 WZW 1013,9 49
10.08.2018 06:00:00 10,3 6,9 7 4 15 8 ZZW 1013,6 50
10.08.2018 05:00:00 8,4 6,5 7 4 14 8 ZZO 1013,8 50
10.08.2018 04:00:00 7,3 6,1 7 4 13 7 Z 1013,2 50
10.08.2018 03:00:00 8,2 6,5 8 5 19 10 ZW 1012,4 50
10.08.2018 02:00:00 7,9 6,2 7 4 11 6 ZW 1011,7 50
10.08.2018 01:00:00 10,2 7,3 4 2 23 13 ZZW 1011,0 50
10.08.2018 00:00:00 11,2 7,5 7 4 23 12 WZW 1010,8 50
09.08.2018 23:00:00 13,2 7,9 10 5 30 16 WNW 1010,1 50
09.08.2018 22:00:00 13,7 9,4 14 7 24 13 WZW 1009,0 50
09.08.2018 21:00:00 14,5 10,6 11 6 37 20 W 1008,0 50
09.08.2018 20:00:00 15,8 11,2 15 8 34 18 W 1006,6 50
09.08.2018 19:00:00 18,2 12,4 18 10 37 20 WNW 1005,0 50
09.08.2018 18:00:00 18,0 13,1 12 6 42 23 W 1003,6 50
09.08.2018 17:00:00 18,1 14,8 16 9 29 16 WNW 1002,5 48
09.08.2018 16:00:00 17,5 15,7 15 8 27 14 WNW 1001,1 45
09.08.2018 15:00:00 16,9 16,7 9 5 18 10 W 1000,3 6
09.08.2018 14:00:00 17,0 16,2 11 6 26 14 ZZW 1000,1 10
09.08.2018 13:00:00 18,8 15,1 11 6 29 16 ZZW 999,6 50
09.08.2018 12:00:00 18,6 15,1 10 5 30 16 ZZW 1000,0 48
09.08.2018 11:00:00 19,2 14,6 16 8 32 17 ZW 1000,1 44
09.08.2018 10:00:00 19,1 15,2 16 9 31 17 ZZW 1000,6 48
09.08.2018 09:00:00 16,8 15,0 11 6 26 14 ZZW 1001,3 50
09.08.2018 08:00:00 16,1 15,0 11 6 22 12 Z 1001,8 40
09.08.2018 07:00:00 15,3 14,7 8 4 16 9 ZZO 1002,4 49
09.08.2018 06:00:00 14,9 14,3 9 5 21 12 ZO 1002,9 19
09.08.2018 05:00:00 14,9 14,6 4 2 14 8 O 1003,4 42
09.08.2018 04:00:00 15,0 14,2 5 3 16 9 O 1003,8 50

tt = temperatuur
td = dauwpunt
ff = windsnelheid
fx = windstoten
dd = windrichting
ppp = luchtdruk
vv = zicht

Weerstations in de omgeving